This is the latest recevied weather packets stored in our database for station/object K4CRS-13. If no packets are shown the sender has not sent any weather packets the latest 10 day(s).
| Time | Temp. | Humidity | Pressure | Rain* | Wind** | Luminosity | Snow |
|---|---|---|---|---|---|---|---|
| 1777505887 | 20.56° C | 85% | 1046.1 hPa | 0 mm | - | 31 W/m² | - |
| 1777505583 | 20.56° C | 85% | 1046.1 hPa | 0 mm | - | 39 W/m² | - |
| 1777505279 | 20.56° C | 85% | 1045.9 hPa | 0 mm | - | 43 W/m² | - |
| 1777504976 | 20.56° C | 85% | 1046.1 hPa | 0 mm | - | 49 W/m² | - |
| 1777504673 | 20.56° C | 85% | 1046.1 hPa | 0 mm | - | 53 W/m² | - |
| 1777504370 | 20.56° C | 84% | 1046.5 hPa | 0 mm | - | 49 W/m² | - |
| 1777504070 | 20.56° C | 84% | 1046.5 hPa | 0 mm | - | 49 W/m² | - |
| 1777503767 | 20.56° C | 84% | 1046 hPa | 0 mm | - | 49 W/m² | - |
| 1777503463 | 20.56° C | 83% | 1046.1 hPa | 0 mm | - | 52 W/m² | - |
| 1777503159 | 21.11° C | 83% | 1046.1 hPa | 0 mm | - | 58 W/m² | - |
| 1777502857 | 21.11° C | 83% | 1046.4 hPa | 0 mm | - | 65 W/m² | - |
| 1777502554 | 21.11° C | 83% | 1046 hPa | 0 mm | - | 79 W/m² | - |
| 1777502251 | 21.11° C | 83% | 1046.6 hPa | 0 mm | - | 72 W/m² | - |
| 1777501948 | 21.67° C | 82% | 1046.4 hPa | 0 mm | - | 89 W/m² | - |
| 1777501645 | 21.67° C | 82% | 1046.5 hPa | 0 mm | - | 106 W/m² | - |
| 1777501342 | 21.67° C | 82% | 1046.3 hPa | 0 mm | - | 114 W/m² | - |
| 1777501040 | 21.67° C | 83% | 1046 hPa | 0 mm | - | 122 W/m² | - |
| 1777500738 | 22.22° C | 82% | 1045.8 hPa | 0 mm | - | 131 W/m² | - |
| 1777500434 | 22.22° C | 81% | 1045.8 hPa | 0 mm | - | 131 W/m² | - |
| 1777500130 | 22.78° C | 80% | 1045.7 hPa | 0 mm | - | 102 W/m² | - |
| 1777499828 | 22.78° C | 78% | 1045.9 hPa | 0 mm | - | 114 W/m² | - |
| 1777499523 | 23.89° C | 78% | 1045.5 hPa | 0 mm | - | 121 W/m² | - |
| 1777499222 | 23.89° C | 77% | 1046 hPa | 0 mm | - | 198 W/m² | - |
| 1777498918 | 23.89° C | 77% | 1045.7 hPa | 0 mm | - | 307 W/m² | - |
| 1777498615 | 23.89° C | 76% | 1046 hPa | 0 mm | - | 205 W/m² | - |
* Rain latest hour (hover to see other rain measurements)
** Current wind speed in m/s (hover to see current wind gust speed)